Total_Precipitation_Accumulation
1.78 2.24 2.78 3.63 4.72 5.65 5.93 5.43 4.95 4.63 4.25 3.90 3.35 3.04 3.13 3.08 2.83 2.56 2.26 2.17 2.07 2.14 2.35 2.14 2.35 2.18 2.27 2.40 2.49 2.62 2.67 2.58 2.63 2.79 2.73 2.34 2.01 1.91 1.84 1.89 2.12 2.01 1.99
1.96 2.69 3.71 4.28 4.57 4.70 4.44 4.10 3.85 3.66 3.21 2.96 2.86 2.68 2.75 2.50 2.35 2.25 2.29 1.95 1.83 1.91 1.89 2.15 2.18 2.19 2.37 2.42 2.41 2.52 2.50 2.31 2.37 2.64 2.87 2.53 2.29 1.85 1.39 1.49 1.50 1.59 1.90
2.15 2.97 3.55 3.68 3.44 3.10 2.97 2.92 2.99 2.74 2.64 2.70 2.66 2.61 2.69 2.42 2.21 2.14 2.20 1.87 1.63 1.64 1.74 1.86 2.00 2.22 2.14 2.29 2.34 2.24 2.32 2.36 2.34 2.36 2.71 2.67 2.46 2.08 1.52 1.31 1.36 1.52 1.75
1.72 2.15 2.42 2.30 2.40 2.53 2.52 2.63 2.73 2.47 2.46 2.42 2.18 2.13 2.11 2.03 1.98 2.00 2.09 2.14 1.76 1.58 1.56 1.67 1.83 2.01 1.94 2.18 1.95 2.06 2.30 2.39 2.26 2.19 2.11 2.16 2.25 2.36 2.02 1.58 1.34 1.45 1.56
1.15 1.28 1.41 1.53 1.72 1.84 2.01 2.27 2.52 2.46 2.30 2.12 2.10 2.19 2.07 2.06 2.06 2.10 2.18 2.25 2.02 1.76 1.59 1.67 1.81 1.89 1.83 1.87 1.87 2.21 2.23 2.18 2.14 2.13 2.15 2.12 2.09 2.00 2.06 1.88 1.60 1.45 1.24
1.01 1.06 1.10 1.22 1.38 1.52 1.74 2.00 2.33 2.38 2.26 2.11 2.04 2.12 2.19 2.20 2.13 2.14 2.13 1.95 1.90 1.88 1.73 1.72 1.82 1.74 1.70 1.74 1.81 2.06 2.09 2.16 2.26 2.26 2.12 2.16 2.05 1.95 2.10 1.85 1.59 1.44 1.03
0.98 1.06 1.00 0.97 1.03 1.18 1.34 1.44 1.67 1.93 2.04 1.99 1.97 2.01 2.18 2.13 1.97 1.87 1.82 1.79 1.62 1.57 1.60 1.67 1.81 1.65 1.60 1.67 1.90 2.02 2.03 2.11 2.16 2.10 1.99 1.94 1.74 1.82 1.90 1.78 1.50 1.40 1.10
0.84 0.90 0.90 0.86 0.84 0.94 1.12 1.25 1.49 1.66 1.86 1.90 1.89 1.93 2.03 1.96 1.82 1.83 1.66 1.63 1.57 1.49 1.57 1.63 1.62 1.59 1.60 1.61 1.95 1.89 1.93 2.00 1.94 1.80 2.07 1.95 1.63 1.78 1.85 1.91 2.05 1.82 1.55
0.66 0.80 0.87 0.95 0.94 0.93 1.04 1.19 1.45 1.71 1.92 2.02 2.07 2.02 2.03 2.04 1.99 1.92 1.69 1.51 1.63 1.54 1.64 1.69 1.65 1.66 1.80 1.95 2.13 1.97 1.98 2.04 1.85 1.88 2.13 1.98 1.79 1.79 1.79 1.98 2.25 2.34 1.99
0.69 0.91 1.06 1.04 0.91 0.79 0.87 1.05 1.31 1.68 1.90 2.04 2.04 1.93 2.09 2.02 1.99 1.92 1.76 1.59 1.59 1.59 1.71 1.83 1.80 1.86 1.90 2.04 2.14 1.95 2.02 2.01 1.90 1.96 2.15 2.13 1.96 1.96 1.89 1.94 2.11 2.34 2.28
0.77 0.94 1.14 1.12 0.88 0.77 0.76 0.90 1.24 1.53 1.70 1.82 1.89 1.81 1.78 1.72 1.73 1.79 1.78 1.75 1.73 1.67 1.70 1.79 1.83 1.80 1.85 1.93 2.03 1.88 1.93 1.91 1.93 1.92 2.00 2.05 2.21 2.19 2.11 2.21 2.26 2.34 2.46
0.83 0.80 0.94 1.11 1.01 0.89 0.84 1.00 1.28 1.47 1.56 1.61 1.63 1.64 1.68 1.66 1.59 1.57 1.66 1.72 1.63 1.54 1.60 1.65 1.63 1.55 1.66 1.82 1.86 1.79 1.88 1.92 1.88 1.99 2.16 2.08 2.18 2.24 2.28 2.45 2.34 2.41 2.69
0.63 0.66 0.82 0.96 1.08 1.05 1.03 1.16 1.31 1.40 1.46 1.38 1.38 1.41 1.43 1.43 1.42 1.44 1.51 1.59 1.61 1.60 1.58 1.56 1.48 1.47 1.53 1.62 1.65 1.79 1.92 1.94 1.98 2.10 2.21 2.24 2.45 2.33 2.39 2.43 2.37 2.42 2.67
0.66 0.64 0.75 0.97 1.08 1.13 1.13 1.12 1.21 1.39 1.40 1.32 1.36 1.47 1.52 1.55 1.57 1.54 1.58 1.68 1.76 1.70 1.71 1.69 1.70 1.71 1.68 1.68 1.76 1.88 1.96 1.98 2.03 2.19 2.24 2.27 2.36 2.44 2.61 2.59 2.64 2.82 3.00
0.73 0.71 0.79 0.99 1.13 1.29 1.32 1.27 1.27 1.33 1.48 1.59 1.65 1.80 1.95 1.97 1.86 1.82 1.89 1.95 2.00 1.93 2.07 2.06 2.06 2.14 2.06 1.85 2.00 2.08 2.05 2.17 2.11 2.17 2.20 2.17 2.32 2.44 2.61 2.49 2.66 3.01 3.20
0.73 0.70 0.82 1.02 1.07 1.09 1.16 1.17 1.22 1.29 1.35 1.44 1.60 1.80 1.99 2.09 2.06 2.10 2.24 2.26 2.22 2.33 2.45 2.40 2.37 2.31 2.01 2.14 2.24 2.24 2.31 2.34 2.28 2.28 2.30 2.26 2.27 2.23 2.28 2.33 2.45 2.68 2.87
0.72 0.76 0.78 0.88 1.07 1.00 0.99 1.11 1.19 1.31 1.45 1.69 1.88 1.97 2.12 2.25 2.27 2.23 2.27 2.32 2.37 2.39 2.45 2.44 2.46 2.30 2.26 2.31 2.12 2.13 2.15 2.27 2.35 2.39 2.40 2.19 2.04 2.12 2.00 2.16 2.25 2.21 2.24
0.95 1.02 1.10 1.09 1.14 1.11 1.09 1.17 1.26 1.41 1.49 1.59 1.76 1.90 2.09 2.24 2.35 2.47 2.48 2.58 2.68 2.71 2.69 2.60 2.56 2.49 2.36 2.28 2.09 2.16 2.05 2.09 2.15 2.17 2.20 2.18 2.08 2.06 2.17 2.18 2.06 1.85 1.78
1.03 1.16 1.22 1.23 1.20 1.27 1.37 1.50 1.53 1.66 1.79 1.85 2.03 2.14 2.25 2.41 2.50 2.57 2.71 2.83 2.93 2.91 2.90 2.84 2.78 2.73 2.71 2.66 2.36 2.27 2.08 2.12 2.10 2.13 2.15 2.12 1.98 2.13 2.08 1.99 1.94 1.81 1.67
1.12 1.23 1.21 1.20 1.36 1.43 1.49 1.62 1.81 1.92 2.07 2.19 2.35 2.48 2.61 2.69 2.68 2.70 2.80 2.86 2.92 2.91 2.89 2.78 2.81 2.75 2.72 2.83 2.57 2.36 2.09 2.11 2.14 2.23 2.22 2.23 2.05 2.11 2.05 1.97 1.97 1.84 1.74
1.31 1.27 1.26 1.33 1.40 1.43 1.52 1.69 1.89 2.08 2.19 2.30 2.41 2.56 2.69 2.90 3.05 3.12 2.94 2.77 2.76 2.83 2.92 2.88 2.91 2.89 2.84 2.81 2.45 2.30 2.17 2.19 2.22 2.18 2.12 2.14 2.16 1.93 1.80 1.72 1.71 1.78 1.86
1.42 1.42 1.41 1.40 1.44 1.53 1.62 1.77 1.95 2.08 2.21 2.28 2.44 2.56 2.65 2.68 2.74 2.99 3.04 2.97 2.88 2.81 2.81 2.87 2.80 2.71 2.65 2.51 2.22 1.99 1.96 2.01 2.01 2.01 1.99 2.00 1.97 1.75 1.58 1.41 1.36 1.48 1.51
1.36 1.38 1.41 1.45 1.51 1.58 1.70 1.85 1.95 2.06 2.13 2.27 2.43 2.61 2.71 2.77 2.74 2.75 2.83 2.82 2.75 2.61 2.45 2.50 2.53 2.53 2.52 2.38 2.08 1.78 1.68 1.71 1.63 1.70 1.90 1.89 1.76 1.61 1.51 1.45 1.39 1.32 1.24
1.40 1.45 1.44 1.46 1.59 1.72 1.86 1.91 1.93 2.04 2.25 2.35 2.41 2.47 2.52 2.56 2.63 2.77 2.71 2.65 2.64 2.56 2.39 2.39 2.41 2.41 2.37 2.19 1.92 1.74 1.64 1.59 1.53 1.58 1.76 1.84 1.81 1.69 1.59 1.50 1.34 1.18 1.19
1.39 1.45 1.54 1.58 1.65 1.71 1.84 1.96 2.01 2.04 2.15 2.16 2.11 2.18 2.29 2.36 2.39 2.54 2.61 2.48 2.37 2.41 2.31 2.36 2.52 2.45 2.24 2.06 1.89 1.66 1.59 1.58 1.65 1.69 1.77 1.89 1.94 1.92 1.80 1.65 1.51 1.38 1.30
1.37 1.49 1.56 1.64 1.68 1.70 1.78 1.82 1.88 1.99 2.10 2.17 2.15 2.15 2.20 2.27 2.31 2.29 2.35 2.38 2.14 2.07 1.96 1.99 2.08 2.12 2.02 1.91 1.82 1.69 1.62 1.57 1.59 1.58 1.70 1.96 2.04 2.05 2.02 1.91 1.71 1.53 1.43